NOAA NWS Hourly Roundups by Site

Regional Weather Roundup for Phoenix, AZ

To Select Another Site Choose from List

Select Site:  

000
ASUS45 KPSR 200910
RWRAZ

ARIZONA HOURLY REGIONAL WEATHER ROUNDUP
NATIONAL WEATHER SERVICE PHOENIX AZ
200 AM MST THU JUN 20 2019

NOTE: FAIR INDICATES FEW OR NO CLOUDS BELOW 12,000 FEET WITH NO
SIGNIFICANT WEATHER AND/OR OBSTRUCTIONS TO VISIBILITY.

AZZ001>003-036-201000-
NORTHWEST ARIZONA

CITY           SKY/WX    TMP DP  RH WIND       PRES   REMARKS
BULLHEAD CITY  CLEAR     88  30  12 S7        29.74S
KINGMAN        CLEAR     68  25  19 S8        29.95S
$$

AZZ004>008-015-016-018-201000-
NORTH CENTRAL ARIZONA

CITY           SKY/WX    TMP DP  RH WIND       PRES   REMARKS
GRAND CANYON   CLEAR     44  29  55 CALM      30.16F
WILLIAMS       CLEAR     64  21  19 SW13G20   30.16
PRESCOTT       CLEAR     65  25  22 S10       30.08S
FLAGSTAFF      CLEAR     45  25  45 CALM      30.20F
PAYSON         CLEAR     63  23  22 CALM      30.10
PAGE           CLEAR     75  31  19 CALM      29.90S
$$

AZZ009>014-017-201000-
NORTHEAST ARIZONA

CITY           SKY/WX    TMP DP  RH WIND       PRES   REMARKS
WINSLOW        CLEAR     70  25  18 SW18      30.01F
SAINT JOHNS    CLEAR     69  19  15 SW16      30.09S
WINDOW ROCK    CLEAR     59  25  27 SW3       30.13F
SHOW LOW       CLEAR     61  21  21 S12       30.17F
$$

AZZ540-542>544-546-548-201000-
GREATER PHOENIX AREA

CITY           SKY/WX    TMP DP  RH WIND       PRES   REMARKS
PHOENIX        CLEAR     85  25  11 W3        29.80F
BUCKEYE        CLEAR     77  25  14 CALM      29.83F
LUKE AFB       CLEAR     84  28  13 SW7       29.80S
DEER VALLEY    CLEAR     74  29  19 CALM      29.84F
SCOTTSDALE     CLEAR     82  31  15 N5        29.85F
MESA-FALCON    CLEAR     81  38  21 CALM      29.84S
MESA-GATEWAY   CLEAR     74  28  18 E8        29.85S
$$

AZZ539-553-201000-
SOUTHWEST MARICOPA COUNTY AND PINAL COUNTY

CITY           SKY/WX    TMP DP  RH WIND       PRES   REMARKS
CASA GRANDE    CLEAR     73  28  18 CALM      29.86F
GILA BEND      FAIR      80  20  11 CALM      29.81S
$$

AZZ503-504-507>509-201000-
SOUTHEAST ARIZONA

CITY           SKY/WX    TMP DP  RH WIND       PRES   REMARKS
TUCSON         CLEAR     73  26  17 S3        29.96F
DAVIS-MONTHAN  CLEAR     72  26  18 SE8       29.94F
NOGALES        CLEAR     68  20  16 CALM      30.05F
SIERRA VISTA   CLEAR     70  21  16 SW8       30.08F
DOUGLAS        CLEAR     61  16  17 CALM      30.05F
SAFFORD        CLEAR     70  17  13 W7        29.93S
$$

AZZ532-201000-
SOUTHWEST ARIZONA

CITY           SKY/WX    TMP DP  RH WIND       PRES   REMARKS
YUMA             N/A     79  41  25 S9        29.76F
$$

CAZ041-043-047-048-061-525>527-560>570-201000-
SOUTHERN CALIFORNIA

CITY           SKY/WX    TMP DP  RH WIND       PRES   REMARKS
DOWNTOWN L.A.  CLOUDY    65  58  78 CALM      29.96F
L.A. AIRPORT   CLOUDY    64  57  78 W6        29.96F
SAN DIEGO      CLOUDY    63  57  81 SW5       29.97F
BURBANK        CLOUDY    62  57  83 S5        29.96F
ONTARIO        CLOUDY    66  61  84 NW6       29.97F
RIVERSIDE      CLOUDY    63  58  83 NW3       29.97F
PALM SPRINGS   CLEAR     82  56  40 CALM      29.77F
EL CENTRO NAS  CLEAR     85  42  22 W13       29.75F
IMPERIAL       CLEAR     81  49  32 SE6       29.74F
BLYTHE           N/A     87  26  11 S12       29.76F
NEEDLES        CLEAR     90  32  12 SW12      29.76F
$$

NVZ020-UTZ003-201000-
SOUTHERN NEVADA-UTAH

CITY           SKY/WX    TMP DP  RH WIND       PRES   REMARKS
LAS VEGAS      CLEAR     90  36  14 S8        29.75F
SALT LAKE CITY MOCLDY    64  40  41 N8        29.88F
$$

NMZ009-TXZ055-201000-
NEW MEXICO-WEST TEXAS

CITY           SKY/WX    TMP DP  RH WIND       PRES   REMARKS
ALBUQUERQUE    CLEAR     75  29  18 W6        30.00S
EL PASO        CLEAR     84  22  10 W8        29.93F
$$


........................KEY........................
SKY/WX - SKY CONDITION/WEATHER
TMP    - TEMPERATURE IN FAHRENHEIT
DP     - DEW POINT IN FAHRENHEIT
RH     - RELATIVE HUMIDITY IN PERCENT
WIND   - DIRECTION AND SPEED IN MILES PER HOUR (MPH)
VRB    - VARIABLE WIND DIRECTION
PRES   - MEAN SEA LEVEL PRESSURE IN INCHES OF MERCURY
         F - FALLING PRESSURE   R - RISING PRESSURE
         S - STEADY PRESSURE
VSB    - VISIBILITY IN MILES
HX     - HEAT INDEX IN FAHRENHEIT
WCI    - WIND CHILL INDEX IN FAHRENHEIT
TC     - TEMPERATURE IN CELSIUS WHICH IS ALSO KNOWN AS
         TEMPERATURE IN CENTIGRADE
AFB    - AIR FORCE BASE
         LUKE AFB IS LUKE AIR FORCE BASE
         DAVIS-MONTHAN IS DAVIS-MONTHAN AIR FORCE BASE
NAS    - NAVAL AIR STATION
         EL CENTRO NAS IS EL CENTRO NAVAL AIR STATION
N/A    - NOT AVAILABLE



 

View Past Reports for Phoenix, AZ.

Products Courtesy of NOAA-NWS
NWS Information Parsing Script by Ken True at Saratoga Weather - Script by SE Lincoln Weather.